QPF
0.24 0.14 0.09 0.09 0.07 0.11 0.18 0.19 0.15 0.06 0.02 0.01 0.00 0.00 0.00 0.00 0.00 0.00 0.00 0.00 0.00 0.00 0.00 0.00 0.00 0.00 0.00 0.00 0.00 0.00 0.00 0.00 0.00 0.00 0.00 0.00 0.00 0.00 0.00 0.00 0.00 0.00 0.00 0.00
0.20 0.09 0.07 0.08 0.08 0.10 0.13 0.13 0.12 0.05 0.02 0.01 0.00 0.00 0.00 0.00 0.00 0.00 0.00 0.00 0.00 0.00 0.00 0.00 0.00 0.00 0.00 0.00 0.00 0.00 0.00 0.00 0.00 0.00 0.00 0.00 0.00 0.00 0.00 0.00 0.00 0.00 0.00 0.00
0.13 0.05 0.05 0.05 0.04 0.05 0.07 0.07 0.06 0.04 0.01 0.00 0.00 0.00 0.00 0.00 0.00 0.00 0.00 0.00 0.00 0.00 0.00 0.00 0.00 0.00 0.00 0.00 0.00 0.00 0.00 0.00 0.00 0.00 0.00 0.00 0.00 0.00 0.00 0.00 0.00 0.00 0.00 0.00
0.08 0.03 0.03 0.01 0.01 0.01 0.02 0.02 0.02 0.02 0.01 0.00 0.00 0.00 0.00 0.00 0.00 0.00 0.00 0.00 0.00 0.00 0.00 0.00 0.00 0.00 0.00 0.00 0.00 0.00 0.00 0.00 0.00 0.00 0.00 0.00 0.00 0.00 0.00 0.00 0.00 0.00 0.00 0.00
0.04 0.02 0.01 0.00 0.00 0.00 0.00 0.01 0.00 0.00 0.00 0.00 0.00 0.00 0.00 0.00 0.00 0.00 0.00 0.00 0.00 0.00 0.00 0.00 0.00 0.00 0.00 0.00 0.00 0.00 0.00 0.00 0.00 0.00 0.00 0.00 0.00 0.00 0.00 0.00 0.00 0.00 0.00 0.00
0.01 0.01 0.00 0.00 0.00 0.00 0.00 0.00 0.00 0.00 0.00 0.00 0.00 0.00 0.00 0.00 0.00 0.00 0.00 0.00 0.00 0.00 0.00 0.00 0.00 0.00 0.00 0.00 0.00 0.00 0.00 0.00 0.00 0.00 0.00 0.00 0.00 0.00 0.00 0.00 0.00 0.00 0.00 0.00
0.01 0.00 0.00 0.00 0.00 0.00 0.00 0.00 0.00 0.00 0.00 0.00 0.00 0.00 0.00 0.00 0.00 0.00 0.00 0.00 0.00 0.00 0.00 0.00 0.00 0.00 0.00 0.00 0.00 0.00 0.00 0.00 0.00 0.00 0.00 0.00 0.00 0.00 0.00 0.00 0.00 0.00 0.00 0.00
0.00 0.00 0.00 0.00 0.00 0.00 0.00 0.00 0.00 0.00 0.00 0.00 0.00 0.00 0.00 0.00 0.00 0.00 0.00 0.00 0.00 0.00 0.00 0.00 0.00 0.00 0.00 0.00 0.00 0.00 0.00 0.00 0.00 0.00 0.00 0.00 0.00 0.00 0.00 0.00 0.00 0.00 0.00 0.00
0.00 0.00 0.00 0.00 0.00 0.00 0.00 0.00 0.00 0.00 0.00 0.00 0.00 0.00 0.00 0.00 0.00 0.00 0.00 0.00 0.00 0.00 0.00 0.00 0.00 0.00 0.00 0.00 0.00 0.00 0.00 0.00 0.00 0.00 0.00 0.00 0.00 0.00 0.00 0.00 0.00 0.00 0.00 0.00
0.00 0.00 0.00 0.00 0.00 0.00 0.00 0.00 0.00 0.00 0.00 0.00 0.00 0.00 0.00 0.00 0.00 0.00 0.00 0.00 0.00 0.00 0.00 0.00 0.00 0.00 0.00 0.00 0.00 0.00 0.00 0.00 0.00 0.00 0.00 0.00 0.00 0.00 0.00 0.00 0.00 0.00 0.00 0.00
0.00 0.00 0.00 0.00 0.00 0.00 0.00 0.00 0.00 0.00 0.00 0.00 0.00 0.00 0.00 0.00 0.00 0.00 0.00 0.00 0.00 0.00 0.00 0.00 0.00 0.00 0.00 0.00 0.00 0.00 0.00 0.00 0.00 0.00 0.00 0.00 0.00 0.00 0.00 0.00 0.00 0.00 0.00 0.00
0.00 0.00 0.00 0.00 0.00 0.00 0.00 0.00 0.00 0.00 0.00 0.00 0.00 0.00 0.00 0.00 0.00 0.00 0.00 0.00 0.00 0.00 0.00 0.00 0.00 0.00 0.00 0.00 0.00 0.00 0.00 0.00 0.00 0.00 0.00 0.00 0.00 0.00 0.00 0.00 0.00 0.00 0.00 0.00
0.00 0.00 0.00 0.00 0.00 0.00 0.00 0.00 0.00 0.00 0.00 0.00 0.00 0.00 0.00 0.00 0.00 0.00 0.00 0.00 0.00 0.00 0.00 0.00 0.00 0.00 0.00 0.00 0.00 0.00 0.00 0.00 0.00 0.00 0.00 0.00 0.00 0.00 0.00 0.00 0.00 0.00 0.00 0.00
0.00 0.00 0.00 0.00 0.00 0.00 0.00 0.00 0.00 0.00 0.00 0.00 0.00 0.00 0.00 0.00 0.00 0.00 0.00 0.00 0.00 0.00 0.00 0.00 0.00 0.00 0.00 0.00 0.00 0.00 0.00 0.00 0.00 0.00 0.00 0.00 0.00 0.00 0.00 0.00 0.00 0.00 0.00 0.00
0.00 0.00 0.00 0.00 0.00 0.00 0.00 0.00 0.00 0.00 0.00 0.00 0.00 0.00 0.00 0.00 0.00 0.00 0.00 0.00 0.00 0.00 0.00 0.00 0.00 0.00 0.00 0.00 0.00 0.00 0.00 0.00 0.00 0.00 0.00 0.00 0.00 0.00 0.00 0.00 0.00 0.00 0.00 0.00
0.00 0.00 0.00 0.00 0.00 0.00 0.00 0.00 0.00 0.00 0.00 0.00 0.00 0.00 0.00 0.00 0.00 0.00 0.00 0.00 0.00 0.00 0.00 0.00 0.00 0.00 0.00 0.00 0.00 0.00 0.00 0.00 0.00 0.00 0.00 0.00 0.00 0.00 0.00 0.00 0.00 0.00 0.00 0.00
0.00 0.00 0.00 0.00 0.00 0.00 0.00 0.00 0.00 0.00 0.00 0.00 0.00 0.00 0.00 0.00 0.00 0.00 0.00 0.00 0.00 0.00 0.00 0.00 0.00 0.00 0.00 0.00 0.00 0.00 0.00 0.00 0.00 0.00 0.00 0.00 0.00 0.00 0.00 0.00 0.00 0.00 0.00 0.00
0.00 0.00 0.00 0.00 0.00 0.00 0.00 0.00 0.00 0.00 0.00 0.00 0.00 0.00 0.00 0.00 0.00 0.00 0.00 0.00 0.00 0.00 0.00 0.00 0.00 0.00 0.00 0.00 0.00 0.00 0.00 0.00 0.00 0.00 0.00 0.00 0.00 0.00 0.00 0.00 0.00 0.00 0.00 0.00
0.00 0.00 0.00 0.00 0.00 0.00 0.00 0.00 0.00 0.00 0.00 0.00 0.00 0.00 0.00 0.00 0.00 0.00 0.00 0.00 0.00 0.00 0.00 0.00 0.00 0.00 0.00 0.00 0.00 0.00 0.00 0.00 0.00 0.00 0.00 0.00 0.00 0.00 0.00 0.00 0.00 0.00 0.00 0.00
0.00 0.00 0.00 0.00 0.00 0.00 0.00 0.00 0.00 0.00 0.00 0.00 0.00 0.00 0.00 0.00 0.00 0.00 0.00 0.00 0.00 0.00 0.00 0.00 0.00 0.00 0.00 0.00 0.00 0.00 0.00 0.00 0.00 0.00 0.00 0.00 0.00 0.00 0.00 0.00 0.00 0.00 0.00 0.00
0.00 0.00 0.00 0.00 0.00 0.00 0.00 0.00 0.00 0.00 0.00 0.00 0.00 0.00 0.00 0.00 0.00 0.00 0.00 0.00 0.00 0.00 0.00 0.00 0.00 0.00 0.00 0.00 0.00 0.00 0.00 0.00 0.00 0.00 0.00 0.00 0.00 0.00 0.00 0.00 0.00 0.00 0.00 0.00
0.00 0.00 0.00 0.00 0.00 0.00 0.00 0.00 0.00 0.00 0.00 0.00 0.00 0.00 0.00 0.00 0.00 0.00 0.00 0.00 0.00 0.00 0.00 0.00 0.00 0.00 0.00 0.00 0.00 0.00 0.00 0.00 0.00 0.00 0.00 0.00 0.00 0.00 0.00 0.00 0.00 0.00 0.01 0.01
0.00 0.00 0.00 0.00 0.00 0.00 0.00 0.00 0.00 0.00 0.00 0.00 0.00 0.00 0.00 0.00 0.00 0.00 0.00 0.00 0.00 0.00 0.00 0.00 0.00 0.00 0.00 0.00 0.00 0.00 0.00 0.00 0.00 0.00 0.00 0.00 0.00 0.00 0.00 0.00 0.01 0.01 0.01 0.00
0.00 0.00 0.00 0.00 0.00 0.00 0.00 0.00 0.00 0.00 0.00 0.00 0.00 0.00 0.00 0.00 0.00 0.00 0.00 0.00 0.00 0.00 0.00 0.00 0.00 0.00 0.00 0.00 0.00 0.00 0.00 0.00 0.00 0.00 0.00 0.00 0.00 0.00 0.00 0.00 0.01 0.00 0.00 0.00
0.00 0.00 0.00 0.00 0.00 0.00 0.00 0.00 0.00 0.00 0.00 0.00 0.00 0.00 0.00 0.00 0.00 0.00 0.00 0.00 0.00 0.00 0.00 0.00 0.00 0.00 0.00 0.00 0.00 0.00 0.00 0.00 0.00 0.00 0.00 0.00 0.00 0.00 0.00 0.00 0.01 0.01 0.00 0.00
0.00 0.00 0.00 0.00 0.00 0.00 0.00 0.00 0.00 0.00 0.00 0.00 0.00 0.00 0.00 0.00 0.00 0.00 0.00 0.00 0.00 0.00 0.00 0.00 0.00 0.00 0.00 0.00 0.00 0.00 0.00 0.00 0.00 0.00 0.00 0.00 0.00 0.00 0.00 0.00 0.00 0.00 0.00 0.00
0.00 0.00 0.00 0.00 0.00 0.00 0.00 0.00 0.00 0.00 0.00 0.00 0.00 0.00 0.00 0.00 0.00 0.00 0.00 0.00 0.00 0.00 0.00 0.00 0.00 0.00 0.00 0.00 0.00 0.00 0.00 0.00 0.00 0.00 0.00 0.00 0.00 0.00 0.00 0.00 0.01 0.01 0.01 0.00
MSLP
1002.92 1002.91 1003.02 1003.20 1003.40 1003.54 1003.56 1003.41 1003.08 1002.61 1002.05 1001.49 1001.05 1000.81 1000.84 1001.19 1001.84 1002.76 1003.89 1005.15 1006.46 1007.75 1008.96 1010.09 1011.11 1012.04 1012.90 1013.69 1014.44 1015.13 1015.77 1016.33 1016.82 1017.22 1017.53 1017.77 1017.95 1018.07 1018.15 1018.19 1018.17 1018.10 1017.96 1017.73
1002.05 1001.92 1001.89 1001.93 1002.01 1002.09 1002.11 1002.04 1001.87 1001.61 1001.31 1001.02 1000.81 1000.77 1000.93 1001.34 1002.00 1002.87 1003.93 1005.12 1006.36 1007.61 1008.82 1009.98 1011.06 1012.06 1012.98 1013.84 1014.63 1015.35 1015.99 1016.55 1017.02 1017.41 1017.71 1017.93 1018.10 1018.20 1018.26 1018.27 1018.22 1018.11 1017.92 1017.64
1001.50 1001.23 1001.03 1000.91 1000.85 1000.84 1000.84 1000.83 1000.79 1000.72 1000.65 1000.60 1000.63 1000.78 1001.09 1001.57 1002.24 1003.09 1004.09 1005.21 1006.39 1007.60 1008.80 1009.97 1011.08 1012.13 1013.11 1014.01 1014.83 1015.57 1016.21 1016.77 1017.23 1017.60 1017.89 1018.10 1018.25 1018.35 1018.39 1018.37 1018.28 1018.13 1017.89 1017.57
1001.23 1000.82 1000.46 1000.18 999.98 999.87 999.84 999.87 999.93 1000.04 1000.17 1000.35 1000.60 1000.93 1001.37 1001.95 1002.65 1003.49 1004.45 1005.51 1006.64 1007.80 1008.98 1010.14 1011.26 1012.32 1013.33 1014.24 1015.07 1015.81 1016.45 1016.99 1017.43 1017.79 1018.07 1018.27 1018.41 1018.48 1018.50 1018.45 1018.33 1018.14 1017.86 1017.49
1001.18 1000.65 1000.16 999.74 999.42 999.24 999.18 999.23 999.39 999.64 999.95 1000.33 1000.77 1001.28 1001.86 1002.52 1003.27 1004.11 1005.04 1006.05 1007.13 1008.24 1009.37 1010.50 1011.60 1012.65 1013.64 1014.54 1015.36 1016.07 1016.69 1017.20 1017.63 1017.96 1018.22 1018.41 1018.53 1018.59 1018.58 1018.50 1018.34 1018.11 1017.78 1017.37
1001.22 1000.63 1000.05 999.55 999.16 998.93 998.86 998.96 999.21 999.58 1000.05 1000.60 1001.20 1001.86 1002.56 1003.30 1004.10 1004.95 1005.86 1006.83 1007.85 1008.90 1009.98 1011.05 1012.10 1013.11 1014.05 1014.91 1015.68 1016.35 1016.92 1017.40 1017.80 1018.11 1018.34 1018.51 1018.60 1018.64 1018.60 1018.49 1018.29 1018.01 1017.64 1017.19
1001.25 1000.65 1000.06 999.54 999.15 998.93 998.89 999.05 999.38 999.86 1000.46 1001.14 1001.88 1002.66 1003.45 1004.26 1005.10 1005.96 1006.86 1007.79 1008.75 1009.74 1010.74 1011.74 1012.72 1013.65 1014.52 1015.31 1016.02 1016.63 1017.16 1017.59 1017.94 1018.22 1018.42 1018.56 1018.63 1018.63 1018.55 1018.40 1018.16 1017.83 1017.42 1016.93
1001.20 1000.66 1000.13 999.67 999.34 999.18 999.22 999.46 999.88 1000.45 1001.15 1001.93 1002.76 1003.62 1004.48 1005.34 1006.20 1007.07 1007.95 1008.84 1009.75 1010.67 1011.60 1012.52 1013.41 1014.25 1015.03 1015.75 1016.37 1016.92 1017.38 1017.77 1018.07 1018.31 1018.48 1018.58 1018.61 1018.56 1018.44 1018.24 1017.95 1017.58 1017.12 1016.60
1001.02 1000.60 1000.19 999.86 999.66 999.62 999.77 1000.10 1000.61 1001.27 1002.04 1002.88 1003.77 1004.67 1005.57 1006.45 1007.32 1008.18 1009.04 1009.90 1010.76 1011.62 1012.48 1013.31 1014.11 1014.86 1015.56 1016.18 1016.73 1017.20 1017.61 1017.94 1018.20 1018.39 1018.52 1018.58 1018.56 1018.47 1018.29 1018.03 1017.69 1017.27 1016.77 1016.21
1000.75 1000.49 1000.26 1000.10 1000.07 1000.19 1000.47 1000.91 1001.51 1002.22 1003.04 1003.91 1004.81 1005.72 1006.62 1007.51 1008.37 1009.22 1010.06 1010.89 1011.71 1012.52 1013.30 1014.06 1014.78 1015.45 1016.06 1016.60 1017.08 1017.48 1017.83 1018.11 1018.33 1018.48 1018.57 1018.58 1018.51 1018.36 1018.12 1017.80 1017.40 1016.92 1016.39 1015.80
1000.44 1000.37 1000.34 1000.39 1000.55 1000.83 1001.25 1001.80 1002.47 1003.23 1004.05 1004.92 1005.81 1006.70 1007.58 1008.45 1009.30 1010.13 1010.95 1011.76 1012.55 1013.31 1014.05 1014.74 1015.39 1015.98 1016.52 1016.99 1017.40 1017.75 1018.05 1018.29 1018.47 1018.58 1018.62 1018.59 1018.47 1018.26 1017.96 1017.57 1017.11 1016.58 1016.00 1015.40
1000.19 1000.29 1000.47 1000.72 1001.07 1001.52 1002.07 1002.71 1003.43 1004.21 1005.03 1005.88 1006.73 1007.58 1008.42 1009.26 1010.09 1010.91 1011.71 1012.50 1013.26 1013.99 1014.69 1015.33 1015.92 1016.45 1016.92 1017.34 1017.69 1018.00 1018.25 1018.45 1018.60 1018.68 1018.68 1018.60 1018.43 1018.16 1017.80 1017.35 1016.84 1016.26 1015.65 1015.03
1000.06 1000.33 1000.69 1001.12 1001.64 1002.24 1002.90 1003.61 1004.37 1005.15 1005.94 1006.75 1007.55 1008.36 1009.16 1009.96 1010.77 1011.57 1012.36 1013.13 1013.88 1014.58 1015.24 1015.84 1016.38 1016.86 1017.27 1017.63 1017.94 1018.20 1018.42 1018.58 1018.70 1018.75 1018.71 1018.59 1018.38 1018.06 1017.65 1017.15 1016.59 1015.98 1015.34 1014.71
1000.11 1000.52 1001.02 1001.61 1002.26 1002.97 1003.72 1004.48 1005.26 1006.03 1006.80 1007.56 1008.32 1009.08 1009.84 1010.61 1011.39 1012.17 1012.95 1013.71 1014.43 1015.11 1015.73 1016.29 1016.78 1017.20 1017.56 1017.86 1018.12 1018.34 1018.52 1018.66 1018.74 1018.76 1018.70 1018.55 1018.29 1017.94 1017.49 1016.95 1016.36 1015.72 1015.08 1014.44
1000.35 1000.87 1001.49 1002.18 1002.94 1003.73 1004.53 1005.33 1006.12 1006.88 1007.62 1008.35 1009.06 1009.78 1010.51 1011.26 1012.01 1012.78 1013.54 1014.27 1014.97 1015.61 1016.19 1016.70 1017.13 1017.49 1017.79 1018.04 1018.25 1018.42 1018.56 1018.66 1018.72 1018.71 1018.63 1018.45 1018.17 1017.79 1017.31 1016.76 1016.15 1015.50 1014.86 1014.24
1000.76 1001.36 1002.06 1002.83 1003.66 1004.51 1005.35 1006.17 1006.96 1007.72 1008.44 1009.14 1009.83 1010.52 1011.23 1011.95 1012.68 1013.42 1014.16 1014.86 1015.52 1016.11 1016.64 1017.08 1017.45 1017.74 1017.98 1018.17 1018.32 1018.45 1018.54 1018.61 1018.64 1018.60 1018.49 1018.30 1018.00 1017.61 1017.12 1016.56 1015.95 1015.32 1014.69 1014.09
1001.31 1001.96 1002.71 1003.53 1004.40 1005.29 1006.16 1007.00 1007.80 1008.55 1009.27 1009.96 1010.64 1011.32 1012.01 1012.71 1013.42 1014.13 1014.82 1015.48 1016.09 1016.63 1017.08 1017.46 1017.76 1017.98 1018.15 1018.27 1018.37 1018.44 1018.50 1018.53 1018.52 1018.46 1018.33 1018.12 1017.81 1017.41 1016.93 1016.38 1015.78 1015.17 1014.57 1013.99
1001.95 1002.63 1003.41 1004.27 1005.16 1006.07 1006.96 1007.81 1008.63 1009.39 1010.11 1010.81 1011.49 1012.16 1012.84 1013.52 1014.20 1014.87 1015.52 1016.13 1016.67 1017.14 1017.53 1017.83 1018.05 1018.21 1018.31 1018.38 1018.42 1018.45 1018.46 1018.45 1018.41 1018.32 1018.17 1017.94 1017.63 1017.24 1016.76 1016.23 1015.66 1015.07 1014.50 1013.96
1002.65 1003.35 1004.15 1005.02 1005.93 1006.85 1007.75 1008.62 1009.45 1010.23 1010.97 1011.68 1012.36 1013.03 1013.69 1014.35 1015.00 1015.63 1016.22 1016.76 1017.24 1017.63 1017.95 1018.19 1018.35 1018.44 1018.49 1018.51 1018.50 1018.48 1018.46 1018.41 1018.34 1018.23 1018.05 1017.82 1017.50 1017.11 1016.65 1016.14 1015.59 1015.03 1014.49 1013.97
1003.40 1004.11 1004.92 1005.79 1006.70 1007.62 1008.54 1009.42 1010.26 1011.06 1011.81 1012.53 1013.22 1013.89 1014.53 1015.16 1015.77 1016.34 1016.87 1017.35 1017.76 1018.09 1018.34 1018.51 1018.62 1018.67 1018.68 1018.66 1018.63 1018.58 1018.52 1018.44 1018.34 1018.20 1018.01 1017.76 1017.43 1017.05 1016.60 1016.10 1015.58 1015.05 1014.52 1014.02
1004.20 1004.92 1005.72 1006.59 1007.50 1008.42 1009.33 1010.22 1011.07 1011.88 1012.64 1013.37 1014.06 1014.71 1015.33 1015.92 1016.48 1016.99 1017.46 1017.87 1018.21 1018.48 1018.67 1018.80 1018.88 1018.90 1018.88 1018.84 1018.79 1018.72 1018.64 1018.54 1018.41 1018.25 1018.04 1017.77 1017.44 1017.05 1016.60 1016.12 1015.62 1015.10 1014.59 1014.09
1005.09 1005.80 1006.60 1007.45 1008.35 1009.25 1010.16 1011.04 1011.89 1012.70 1013.46 1014.18 1014.85 1015.48 1016.07 1016.61 1017.11 1017.56 1017.96 1018.30 1018.58 1018.79 1018.95 1019.05 1019.09 1019.10 1019.08 1019.03 1018.96 1018.89 1018.79 1018.67 1018.52 1018.34 1018.10 1017.82 1017.48 1017.08 1016.64 1016.17 1015.67 1015.16 1014.65 1014.14
1006.06 1006.78 1007.56 1008.39 1009.26 1010.15 1011.03 1011.90 1012.74 1013.53 1014.28 1014.98 1015.63 1016.22 1016.76 1017.25 1017.68 1018.06 1018.39 1018.67 1018.89 1019.05 1019.17 1019.24 1019.27 1019.27 1019.25 1019.20 1019.13 1019.05 1018.94 1018.81 1018.64 1018.43 1018.18 1017.87 1017.52 1017.11 1016.67 1016.19 1015.70 1015.18 1014.66 1014.14
1007.12 1007.84 1008.61 1009.42 1010.26 1011.12 1011.98 1012.81 1013.62 1014.39 1015.11 1015.78 1016.38 1016.93 1017.41 1017.84 1018.21 1018.52 1018.78 1018.99 1019.15 1019.27 1019.35 1019.40 1019.41 1019.41 1019.38 1019.33 1019.26 1019.17 1019.06 1018.91 1018.72 1018.49 1018.22 1017.89 1017.52 1017.10 1016.65 1016.16 1015.66 1015.13 1014.59 1014.04
1008.25 1008.97 1009.73 1010.52 1011.33 1012.15 1012.97 1013.77 1014.54 1015.27 1015.95 1016.58 1017.13 1017.62 1018.05 1018.41 1018.71 1018.96 1019.15 1019.29 1019.40 1019.47 1019.51 1019.53 1019.53 1019.51 1019.48 1019.42 1019.35 1019.25 1019.12 1018.95 1018.74 1018.49 1018.19 1017.84 1017.44 1017.01 1016.54 1016.04 1015.52 1014.97 1014.40 1013.82
1009.40 1010.13 1010.88 1011.65 1012.43 1013.21 1013.99 1014.75 1015.48 1016.16 1016.80 1017.37 1017.88 1018.31 1018.68 1018.98 1019.21 1019.39 1019.52 1019.60 1019.65 1019.67 1019.67 1019.66 1019.63 1019.60 1019.54 1019.47 1019.38 1019.26 1019.11 1018.92 1018.69 1018.41 1018.08 1017.70 1017.28 1016.82 1016.33 1015.80 1015.25 1014.68 1014.08 1013.46
1010.52 1011.26 1012.00 1012.75 1013.50 1014.24 1014.98 1015.69 1016.37 1017.01 1017.60 1018.13 1018.59 1018.97 1019.29 1019.53 1019.71 1019.83 1019.89 1019.92 1019.92 1019.89 1019.85 1019.80 1019.74 1019.67 1019.59 1019.50 1019.38 1019.24 1019.06 1018.83 1018.57 1018.25 1017.89 1017.48 1017.03 1016.54 1016.01 1015.45 1014.87 1014.26 1013.62 1012.96
Thickness
5530 5540 5543 5545 5549 5546 5544 5550 5558 5580 5601 5621 5629 5633 5633 5631 5628 5623 5620 5616 5612 5606 5599 5592 5585 5577 5570 5563 5556 5550 5542 5535 5528 5522 5517 5511 5505 5499 5493 5487 5481 5473 5467 5460
5544 5557 5558 5557 5561 5561 5558 5560 5566 5585 5605 5624 5625 5626 5625 5626 5626 5623 5620 5616 5610 5603 5594 5586 5579 5570 5561 5553 5545 5539 5532 5524 5518 5512 5506 5500 5494 5488 5481 5474 5467 5460 5453 5446
5555 5568 5569 5568 5575 5575 5573 5579 5585 5595 5613 5622 5623 5625 5626 5626 5627 5626 5622 5616 5609 5601 5592 5582 5572 5564 5553 5543 5536 5528 5521 5515 5509 5502 5495 5489 5483 5476 5468 5461 5454 5447 5440 5434
5559 5569 5569 5587 5598 5596 5594 5597 5603 5612 5620 5624 5624 5620 5620 5624 5625 5622 5618 5612 5603 5593 5582 5571 5561 5552 5543 5534 5526 5518 5511 5505 5498 5491 5484 5477 5470 5463 5456 5449 5441 5434 5427 5421
5557 5565 5576 5594 5599 5601 5601 5604 5611 5614 5615 5613 5612 5615 5612 5612 5618 5616 5611 5603 5593 5583 5572 5560 5551 5542 5533 5523 5515 5508 5502 5495 5488 5481 5473 5466 5458 5451 5444 5436 5429 5422 5415 5408
5559 5564 5572 5593 5604 5607 5607 5604 5615 5616 5614 5610 5614 5610 5608 5602 5605 5600 5595 5588 5578 5567 5558 5548 5539 5532 5524 5513 5506 5499 5492 5485 5477 5470 5462 5455 5447 5439 5432 5425 5418 5411 5403 5394
5559 5563 5576 5595 5604 5609 5598 5604 5613 5615 5615 5614 5615 5611 5595 5587 5587 5584 5579 5571 5564 5555 5546 5537 5529 5522 5513 5504 5496 5489 5481 5474 5466 5459 5451 5444 5435 5428 5420 5414 5407 5400 5392 5383
5561 5565 5577 5600 5603 5601 5602 5605 5603 5604 5604 5598 5590 5585 5579 5575 5571 5567 5561 5555 5550 5542 5532 5523 5518 5512 5501 5493 5486 5478 5470 5462 5455 5447 5440 5433 5423 5416 5409 5402 5395 5387 5379 5370
5573 5579 5589 5595 5599 5601 5601 5599 5595 5588 5589 5589 5581 5572 5567 5561 5557 5552 5548 5542 5536 5529 5519 5510 5505 5500 5491 5481 5474 5466 5458 5450 5442 5435 5427 5419 5412 5404 5398 5391 5383 5375 5367 5358
5574 5581 5586 5590 5593 5594 5595 5590 5585 5582 5581 5580 5572 5563 5557 5551 5545 5539 5534 5529 5523 5517 5507 5497 5492 5486 5479 5471 5463 5455 5446 5438 5430 5422 5415 5408 5400 5393 5385 5377 5369 5363 5354 5343
5575 5580 5582 5585 5585 5582 5578 5577 5574 5570 5569 5568 5564 5555 5549 5542 5535 5529 5523 5517 5511 5505 5496 5486 5480 5473 5466 5459 5451 5443 5434 5426 5419 5412 5404 5397 5390 5381 5374 5365 5355 5347 5336 5323
5579 5583 5581 5581 5576 5574 5572 5569 5567 5563 5556 5553 5554 5547 5540 5533 5525 5519 5512 5506 5498 5491 5483 5475 5469 5461 5454 5447 5440 5431 5423 5415 5408 5400 5393 5387 5378 5370 5362 5352 5341 5329 5317 5305
5585 5583 5577 5573 5568 5568 5565 5562 5559 5557 5552 5545 5540 5538 5532 5523 5515 5509 5501 5494 5487 5479 5472 5464 5457 5450 5442 5436 5428 5420 5412 5404 5397 5390 5382 5375 5367 5359 5351 5340 5325 5311 5299 5287
5574 5573 5566 5563 5559 5558 5557 5552 5549 5544 5539 5536 5531 5526 5520 5511 5504 5497 5489 5482 5475 5467 5460 5453 5446 5438 5431 5424 5416 5409 5401 5395 5388 5379 5371 5363 5354 5345 5335 5326 5315 5300 5285 5272
5564 5569 5563 5554 5549 5546 5544 5542 5537 5530 5526 5521 5518 5513 5507 5499 5491 5482 5476 5470 5463 5455 5448 5441 5434 5426 5419 5412 5405 5398 5391 5383 5376 5368 5359 5350 5341 5331 5320 5309 5298 5287 5276 5263
5547 5548 5548 5544 5538 5535 5534 5533 5529 5520 5516 5510 5504 5497 5491 5484 5476 5468 5462 5457 5451 5443 5436 5429 5422 5415 5408 5401 5394 5387 5379 5373 5366 5356 5346 5337 5326 5316 5305 5294 5282 5271 5261 5253
5542 5535 5532 5530 5528 5527 5525 5524 5521 5514 5506 5498 5490 5482 5476 5469 5461 5454 5448 5444 5438 5431 5424 5417 5410 5403 5397 5390 5383 5375 5367 5359 5353 5342 5332 5322 5312 5301 5290 5278 5267 5257 5248 5241
5546 5544 5542 5539 5531 5522 5515 5511 5507 5500 5492 5484 5476 5470 5463 5456 5449 5441 5435 5429 5423 5416 5410 5404 5398 5392 5385 5379 5371 5363 5355 5346 5337 5328 5318 5307 5298 5286 5274 5263 5253 5245 5239 5232
5533 5531 5528 5524 5520 5514 5506 5499 5492 5484 5477 5470 5463 5456 5449 5443 5436 5429 5423 5417 5410 5403 5397 5392 5388 5380 5374 5367 5360 5351 5342 5333 5323 5313 5303 5293 5281 5269 5259 5249 5241 5235 5230 5226
5521 5520 5516 5510 5506 5501 5493 5484 5477 5469 5462 5456 5450 5442 5435 5428 5423 5416 5410 5403 5397 5392 5386 5381 5375 5368 5362 5355 5348 5338 5329 5319 5309 5298 5288 5277 5266 5254 5245 5237 5231 5226 5223 5220
5510 5506 5502 5496 5489 5483 5477 5471 5464 5455 5447 5442 5438 5431 5423 5416 5410 5404 5398 5389 5384 5380 5375 5370 5363 5357 5350 5343 5335 5324 5314 5304 5294 5283 5272 5261 5251 5241 5233 5227 5222 5219 5217 5217
5496 5492 5486 5480 5473 5464 5457 5453 5448 5442 5435 5429 5423 5417 5410 5403 5396 5390 5384 5379 5374 5370 5363 5357 5351 5346 5340 5330 5320 5310 5300 5290 5279 5268 5256 5246 5236 5229 5222 5217 5214 5213 5213 5213
5482 5476 5471 5464 5456 5447 5440 5436 5431 5427 5421 5416 5410 5404 5398 5391 5386 5380 5371 5366 5363 5359 5351 5346 5341 5335 5326 5314 5305 5295 5285 5275 5264 5253 5242 5232 5224 5218 5213 5210 5208 5209 5210 5213
5465 5459 5451 5445 5440 5433 5424 5417 5414 5410 5405 5400 5395 5390 5385 5379 5371 5366 5362 5359 5353 5346 5339 5334 5329 5321 5311 5300 5291 5281 5271 5260 5249 5238 5229 5221 5214 5209 5205 5204 5204 5207 5210 5214
5446 5440 5435 5430 5425 5416 5407 5402 5397 5393 5389 5383 5378 5374 5371 5367 5361 5354 5349 5345 5341 5333 5325 5320 5314 5306 5296 5286 5277 5267 5257 5246 5236 5228 5219 5211 5206 5201 5200 5200 5202 5206 5211 5216
5431 5426 5421 5416 5411 5404 5398 5394 5388 5382 5378 5371 5364 5360 5356 5352 5347 5341 5336 5331 5326 5320 5312 5305 5298 5291 5282 5273 5263 5253 5243 5232 5222 5214 5208 5203 5199 5196 5196 5198 5202 5208 5214 5221
5413 5409 5404 5399 5394 5390 5387 5383 5378 5372 5367 5362 5354 5348 5343 5339 5334 5328 5323 5318 5312 5306 5299 5292 5285 5277 5268 5259 5249 5239 5229 5221 5213 5206 5201 5197 5195 5194 5196 5199 5205 5212 5220 5227